Theta_e
314 314 316 317 318 317 317 318 318 317 316 317 316 316 316 316 317 319 321 322 322 322 322 321 320 321 321 322 323 324 325 325 326 326 326 326 326 326 326 326 325 325 325 325 327 327 326 326 326 326 326 324 324 325 325 326 326 325 324 324 322 322 321 319 317 315 319 323 326 325 326 327 325 328 326 322 323 324 325 327 324 320 321 321 318
314 315 316 317 317 316 316 316 316 315 315 314 314 314 314 314 316 319 319 321 320 319 318 317 316 317 317 317 318 319 321 323 325 326 326 326 326 326 326 326 325 325 326 325 326 326 326 325 325 326 326 325 325 325 325 325 325 324 324 323 322 322 323 320 318 316 316 319 322 324 324 327 324 327 324 322 322 324 324 322 321 320 319 320 319
316 317 317 316 315 315 314 314 314 313 312 312 311 312 312 314 317 317 317 317 318 318 316 314 315 315 314 315 315 316 316 318 322 325 326 326 325 326 326 326 325 325 325 325 326 326 325 325 325 325 326 325 325 325 325 325 325 324 324 324 323 322 322 322 319 316 316 317 321 320 322 324 324 324 325 324 322 323 322 321 319 320 321 320 319
316 317 316 315 314 314 313 313 312 312 311 310 310 312 313 313 314 313 313 313 313 313 313 313 313 313 313 313 313 313 314 315 317 320 323 324 325 325 325 326 326 325 325 325 325 325 324 324 324 325 325 324 324 325 325 325 324 324 324 323 323 322 322 322 321 319 317 315 317 320 322 322 324 325 324 323 321 321 322 321 321 320 319 319 318
315 316 315 314 313 312 311 311 310 309 309 309 311 311 311 310 310 310 310 310 310 310 310 311 311 311 311 311 311 311 312 313 313 315 317 321 323 324 325 325 325 324 324 324 325 325 324 324 324 325 325 324 324 324 324 324 324 324 323 323 323 322 322 322 321 321 318 316 316 320 322 322 324 323 323 321 321 321 321 319 319 319 318 318 319
315 315 314 313 312 311 310 309 308 308 310 310 310 310 310 309 309 309 309 308 308 308 308 308 309 309 310 310 310 310 311 311 312 312 313 316 320 323 323 323 324 324 323 324 325 325 325 324 324 324 324 323 323 324 324 323 323 323 322 322 323 322 321 321 321 321 320 318 318 317 320 320 320 320 322 322 319 318 318 319 319 319 317 315 317
314 313 313 312 312 311 310 309 309 309 310 310 310 309 309 308 308 307 307 307 306 306 306 307 308 308 309 309 308 308 308 308 308 309 311 313 317 321 322 322 323 323 323 323 324 324 324 324 324 324 324 323 323 323 322 323 323 322 322 322 323 322 320 320 320 320 319 317 317 318 318 320 320 318 321 323 322 320 317 315 315 316 316 316 313
313 313 312 312 311 311 310 310 310 310 310 310 309 308 308 307 307 306 306 305 305 305 305 306 307 308 307 306 306 306 305 304 304 306 310 314 319 318 318 318 320 321 322 323 323 322 323 323 324 324 324 323 323 323 322 322 322 322 322 322 322 321 319 319 319 319 317 317 316 315 317 317 318 320 321 321 318 317 318 317 313 312 314 315 315
311 312 312 311 311 311 311 311 311 310 309 308 307 307 306 306 305 305 305 304 305 305 305 306 306 305 304 304 304 304 303 303 303 303 308 313 313 312 312 312 313 315 317 319 320 321 320 320 321 322 324 325 320 319 320 320 322 321 321 322 321 320 320 319 319 318 318 316 315 316 316 315 316 317 316 316 315 314 317 318 316 315 315 313 314
310 310 310 310 311 311 311 310 309 308 307 306 305 305 305 305 304 303 303 303 303 304 304 305 305 303 302 302 303 302 301 302 302 300 301 308 309 308 308 308 309 310 311 312 315 317 318 317 318 319 318 318 316 311 309 310 315 321 322 321 321 320 320 319 318 318 317 315 315 314 313 313 314 316 316 317 317 317 316 316 313 313 313 312 310
310 310 309 310 310 310 310 309 308 306 306 305 305 304 304 303 303 303 302 302 302 303 303 303 303 303 302 301 300 300 300 300 297 295 296 299 306 306 305 306 306 307 307 308 309 312 315 315 315 316 317 318 314 303 301 301 303 305 307 308 310 319 320 317 318 319 317 316 315 314 314 313 314 316 317 317 316 316 315 315 312 312 311 308 307
309 309 309 309 309 309 309 307 306 305 305 304 304 304 303 302 302 301 301 301 301 302 301 301 302 302 302 301 300 299 299 298 295 296 296 296 300 305 304 304 304 304 305 306 307 309 311 312 312 312 315 318 316 313 306 299 297 297 296 296 295 294 295 308 316 317 317 316 314 313 314 313 313 314 316 315 314 314 314 314 312 312 311 311 310
308 308 308 308 308 308 308 306 305 305 304 304 304 303 302 301 301 300 300 301 300 300 299 299 300 301 301 300 299 299 298 295 295 296 296 296 297 302 303 303 303 303 303 304 305 305 307 308 308 309 310 315 316 312 310 307 301 299 300 300 299 297 294 294 295 308 319 317 315 314 314 314 312 313 316 316 314 313 312 312 311 312 312 312 311
306 307 307 307 308 307 307 306 305 305 304 303 303 302 301 300 300 300 300 300 299 299 299 298 299 299 299 299 298 298 297 295 294 295 296 296 296 299 303 302 302 301 301 302 303 304 305 306 306 306 307 309 310 309 308 306 305 304 304 302 301 300 298 296 297 298 304 315 317 315 313 314 313 313 314 313 314 312 311 311 310 310 311 312 312
305 305 306 306 307 306 306 305 304 303 303 302 301 300 300 300 300 300 299 299 298 298 298 297 298 298 298 298 297 296 296 293 293 294 295 296 297 299 303 302 301 300 300 300 301 302 303 304 305 305 306 306 306 307 307 306 305 304 303 302 302 301 299 298 299 300 301 301 301 302 301 304 311 312 312 313 314 313 313 312 311 311 308 307 308
303 304 304 305 306 306 304 303 303 302 302 301 300 299 299 299 299 299 299 299 299 298 298 298 297 297 297 297 296 295 295 292 292 293 294 295 298 303 302 301 300 300 300 300 299 300 301 303 304 304 305 304 300 298 302 306 305 304 303 303 303 303 301 299 296 296 298 299 299 298 297 296 295 303 308 310 310 310 310 310 310 309 308 306 303
302 303 303 304 305 305 304 302 302 301 301 300 299 298 298 298 299 300 298 298 298 297 297 297 297 296 296 296 295 294 295 293 292 292 293 294 299 302 302 301 300 299 299 299 299 299 300 301 300 301 301 300 296 295 297 302 304 303 302 302 302 302 302 303 298 296 296 295 295 295 295 295 295 295 294 296 304 308 310 308 306 308 305 303 300
301 301 302 303 304 304 303 302 301 300 299 298 298 298 298 298 298 299 298 297 297 297 297 297 296 297 296 295 295 294 294 294 292 292 293 294 298 301 301 301 299 299 299 299 299 298 299 300 301 298 298 297 293 294 296 303 303 302 302 301 300 300 300 302 303 302 298 297 297 296 296 296 297 296 296 296 297 302 308 305 306 307 305 304 302
300 300 301 302 303 302 302 301 300 299 298 297 297 297 297 297 298 298 298 298 297 297 297 296 296 296 296 296 297 294 294 294 292 292 292 293 297 299 299 299 298 298 298 297 298 297 297 298 297 296 296 295 292 293 294 301 303 302 301 300 299 298 299 301 301 300 301 301 301 301 300 301 303 302 301 297 298 301 303 306 308 308 305 304 302
300 301 301 301 301 301 301 300 299 298 297 296 296 296 296 296 296 296 296 296 296 296 296 295 295 295 296 295 295 295 294 293 293 292 292 293 294 298 298 297 296 296 297 297 296 296 296 296 295 292 292 292 292 292 293 295 299 300 301 299 299 298 301 300 300 301 300 300 300 300 300 301 301 302 301 301 302 302 300 301 302 307 306 304 304
300 300 300 300 300 299 299 298 297 297 296 295 295 295 295 295 295 295 295 295 295 294 294 294 294 294 295 295 295 295 295 294 293 291 292 292 293 294 296 295 296 296 295 295 295 295 295 295 295 292 291 292 292 292 293 293 295 298 297 297 297 298 299 300 300 299 300 299 299 299 300 300 300 300 300 300 300 301 301 299 300 301 302 302 300
299 299 299 299 298 298 298 298 297 297 296 295 294 294 294 295 294 294 294 294 293 293 293 293 293 292 293 294 294 294 295 295 294 292 291 292 291 292 294 294 295 295 294 294 294 294 294 294 294 292 291 291 291 292 292 292 293 297 294 292 292 294 299 300 300 299 299 299 298 298 298 298 298 298 299 299 299 300 300 300 299 300 300 300 301
299 298 298 298 298 297 297 297 297 297 296 295 294 293 293 294 294 294 293 293 293 292 292 292 292 291 291 292 292 293 294 294 293 293 291 291 291 291 291 292 292 295 293 292 293 293 294 293 294 293 290 290 290 290 291 292 294 293 291 292 292 293 297 299 298 298 298 297 297 296 297 297 297 297 297 298 299 299 299 300 300 300 299 299 299
297 297 297 297 297 297 297 297 296 296 296 295 295 294 293 293 293 293 293 293 292 291 291 291 291 290 290 290 291 292 292 293 293 292 292 290 291 291 290 290 291 293 293 292 292 292 292 292 292 290 290 290 290 290 290 291 291 291 291 292 293 294 299 299 298 298 296 296 296 296 296 296 297 297 297 298 298 299 299 299 299 299 299 298 298
296 296 296 296 296 296 296 295 295 294 294 294 294 294 293 292 292 292 292 291 291 290 290 290 290 290 290 289 290 290 291 291 292 292 291 291 290 290 290 290 290 291 292 292 292 292 290 290 290 290 290 290 290 291 291 290 289 290 290 291 295 296 297 297 297 297 296 295 295 296 296 296 296 297 298 299 299 299 298 299 299 299 300 299 298
295 295 295 295 294 295 294 293 293 293 292 292 292 291 291 291 291 290 291 290 290 290 290 290 290 289 289 289 289 289 290 290 290 291 292 292 291 290 290 290 291 291 292 291 290 290 289 290 290 290 290 291 292 291 291 291 289 290 290 292 293 294 294 295 295 295 294 294 294 295 296 296 297 297 297 298 297 297 297 297 297 296 297 297 296
294 294 294 294 294 293 292 292 291 291 291 291 290 290 290 289 290 290 289 289 289 289 289 289 289 289 289 289 289 289 289 289 289 290 290 290 290 291 291 291 291 291 291 291 291 291 290 290 290 289 290 289 289 289 290 290 290 290 290 290 291 292 292 293 293 293 293 294 293 294 295 296 297 296 296 296 296 296 297 297 296 296 296 296 295
292 292 292 293 292 292 291 288 289 289 289 289 289 289 289 289 288 287 287 288 289 288 288 288 288 288 289 289 289 289 289 289 288 288 289 290 290 290 290 290 289 289 290 290 290 291 290 290 290 291 290 291 290 290 290 290 289 289 289 289 289 290 290 291 291 291 292 293 293 294 294 295 294 294 295 294 294 295 297 297 296 296 296 297 294
291 291 291 291 290 291 290 289 289 288 288 288 287 287 287 289 289 288 288 288 288 289 289 288 288 286 287 288 289 288 288 288 288 289 289 289 289 290 289 289 289 289 290 289 291 290 290 289 288 288 288 287 287 288 288 289 288 289 289 289 289 289 289 288 287 288 289 291 290 291 291 293 293 293 293 294 293 293 295 297 296 295 295 294 292
290 290 290 290 290 290 289 289 289 289 289 288 288 288 287 289 288 289 288 289 289 289 289 288 288 288 288 288 288 289 288 288 289 289 289 289 289 289 289 289 289 289 289 288 290 288 287 287 286 286 287 287 286 286 287 287 287 287 288 287 288 288 288 287 287 287 287 288 288 288 289 290 290 292 292 292 293 293 293 293 296 295 293 293 292
290 290 290 289 289 290 289 289 289 289 289 289 289 289 289 289 288 289 289 289 289 288 288 289 289 289 291 289 289 289 289 289 289 289 289 289 289 289 289 289 289 288 288 288 287 286 286 286 286 286 286 286 286 286 286 286 286 286 287 288 287 286 286 287 286 286 286 286 287 287 287 288 288 289 289 289 291 292 293 293 295 295 294 293 292
290 289 289 289 289 289 289 289 289 288 287 288 288 288 288 288 289 289 289 289 289 289 289 289 289 289 289 290 290 289 289 289 289 289 289 289 289 288 288 288 288 288 288 288 286 285 286 286 285 286 286 286 285 285 286 286 286 286 287 286 286 286 286 286 286 287 286 286 285 285 285 286 287 287 288 288 288 289 290 290 291 292 292 292 292
290 289 289 289 289 289 288 288 288 288 288 287 287 288 288 287 287 287 288 289 289 289 289 289 289 289 289 289 289 289 288 289 289 289 289 289 289 288 288 288 288 288 288 287 286 285 286 286 286 286 286 285 286 286 286 286 286 286 286 286 286 286 287 286 285 286 285 285 285 285 285 286 286 287 287 287 287 287 287 288 290 290 291 291 289
290 290 289 289 289 288 288 287 287 286 286 287 287 287 286 287 286 286 286 287 289 289 289 289 289 289 289 289 289 289 289 289 289 289 289 288 288 288 288 288 288 288 287 286 286 285 286 286 285 285 286 285 286 286 286 286 286 286 286 287 287 287 287 288 287 286 286 286 286 285 285 285 285 287 288 288 288 288 287 287 289 288 288 289 290
290 287 286 287 289 288 287 286 286 286 286 286 286 286 285 284 285 286 286 286 286 286 286 287 288 288 288 288 289 288 288 288 288 288 288 288 288 288 288 287 286 286 286 286 286 286 285 285 285 285 285 285 285 285 285 286 286 285 285 286 287 287 287 286 286 286 286 286 286 285 284 284 285 285 286 287 288 287 286 287 286 288 288 288 289
290 289 289 287 287 286 286 286 286 286 286 285 285 285 284 285 286 285 285 285 286 286 286 286 286 288 288 288 288 288 288 288 288 288 287 288 288 288 287 286 285 285 285 285 285 285 285 285 285 285 286 285 286 286 285 285 286 286 286 286 285 286 286 286 285 285 285 286 285 285 285 285 284 284 286 287 286 286 286 286 286 286 287 288 287
289 288 288 287 286 286 286 286 286 286 283 284 285 285 285 285 284 285 285 285 285 285 286 286 288 288 288 288 289 288 288 288 288 287 287 287 286 286 286 286 285 286 285 286 286 286 286 285 285 286 286 286 285 285 286 286 286 286 285 286 286 286 285 285 285 284 285 285 285 285 285 285 284 284 285 286 285 286 286 286 286 286 286 286 286
289 288 287 287 287 287 287 286 285 283 285 285 285 285 284 284 284 284 285 285 285 285 286 286 287 286 287 288 292 287 286 287 288 288 287 286 284 284 285 285 285 285 285 285 285 286 286 286 286 286 286 286 286 286 286 286 285 285 285 285 285 285 285 285 284 285 285 286 285 285 286 286 285 285 284 285 285 285 285 285 286 287 286 285 287
287 285 284 284 285 288 287 286 285 286 285 285 285 285 283 284 284 284 284 284 284 284 284 285 286 286 287 285 286 287 287 285 283 282 282 282 283 284 284 285 285 285 285 285 285 285 286 286 285 286 286 286 286 286 285 285 285 285 285 285 285 285 284 285 285 285 285 285 286 286 286 286 287 287 286 286 285 284 285 284 284 286 288 287 286
287 286 284 284 286 286 286 285 285 285 284 285 284 284 284 284 284 284 284 285 285 284 285 286 286 286 286 284 285 286 286 283 283 283 281 282 282 284 284 284 285 285 285 285 285 285 286 285 285 286 286 286 286 286 285 285 283 283 284 284 285 285 284 284 284 284 284 285 285 286 286 286 286 286 287 286 286 286 286 286 285 284 285 286 286
287 286 285 285 285 286 285 285 285 285 285 285 285 285 285 283 283 282 284 284 283 283 284 285 285 285 284 284 286 285 286 285 285 285 284 284 282 284 285 285 283 285 284 284 285 285 285 285 285 284 283 284 285 285 285 284 282 283 283 282 284 284 284 284 284 284 284 285 285 285 286 286 286 286 286 285 286 286 285 285 286 286 285 285 285
286 286 287 286 286 286 285 285 284 284 284 284 285 285 283 283 283 284 284 284 282 283 284 285 285 284 283 287 286 286 285 285 284 284 285 285 285 285 283 284 284 284 284 285 285 283 283 284 282 281 280 280 281 281 282 283 282 282 282 282 283 283 284 284 284 283 283 284 285 284 285 286 286 286 285 285 285 285 286 286 285 285 286 286 286
287 287 287 286 287 286 286 285 284 284 284 284 285 283 283 284 284 284 283 283 283 283 283 285 285 285 284 284 284 283 284 284 283 284 285 285 285 283 284 285 285 285 284 284 284 283 282 280 281 280 280 280 283 281 282 283 281 281 281 281 281 282 282 283 284 284 284 284 285 284 284 284 285 286 286 285 284 285 285 285 285 285 284 285 285
287 286 286 286 286 286 285 285 285 284 285 284 283 283 284 284 284 284 284 284 283 283 284 284 284 284 284 284 284 284 285 284 285 285 285 284 284 284 284 285 285 285 285 284 284 282 280 279 280 280 282 282 282 284 281 281 279 281 282 282 282 282 282 282 283 283 283 284 284 284 284 284 284 285 285 284 283 284 284 284 284 284 284 284 284
287 287 286 286 285 286 285 285 285 285 282 283 283 284 283 284 284 284 284 284 283 283 284 283 283 283 283 285 285 285 285 285 283 283 284 284 284 285 285 284 284 285 283 282 282 282 280 279 278 278 280 282 282 283 282 282 282 281 279 282 283 284 284 283 284 283 281 282 283 284 284 284 284 284 284 283 283 283 283 282 283 282 284 283 283
287 287 286 286 285 285 285 285 284 285 284 284 284 285 284 284 284 284 284 284 284 284 285 284 284 283 284 285 285 284 285 285 285 285 284 284 284 284 284 284 283 283 282 281 280 281 279 278 278 278 280 280 281 282 282 282 283 283 283 284 285 285 284 283 280 280 281 282 283 283 283 284 284 283 282 283 283 283 282 282 282 282 282 283 283
287 287 286 286 286 285 285 285 284 284 285 284 285 285 284 285 285 284 283 285 284 284 285 285 285 285 285 285 285 286 285 284 285 285 285 286 285 285 284 283 282 283 283 282 280 280 279 279 279 279 279 278 279 282 284 283 283 282 283 284 284 283 281 280 280 282 281 280 280 282 282 283 283 283 282 282 283 283 282 282 282 281 282 282 283
287 286 286 286 286 285 284 284 285 283 285 284 284 284 284 284 284 284 285 285 285 285 285 285 285 286 285 286 286 286 285 285 285 285 285 285 285 285 284 283 283 285 283 283 282 281 281 280 280 279 279 279 280 281 283 284 284 283 283 283 284 283 281 278 282 283 281 280 280 281 281 282 282 282 282 282 282 282 283 284 282 282 282 282 282
286 286 285 286 286 286 285 285 284 285 285 285 285 284 284 284 284 284 284 285 285 285 286 286 286 286 285 286 286 286 285 284 285 285 285 285 285 285 285 284 283 284 283 283 284 283 282 282 281 281 280 280 280 280 281 282 283 284 284 283 281 276 275 275 279 281 279 280 279 280 280 280 280 280 280 281 282 282 282 281 281 282 282 282 282
286 285 286 285 286 285 285 285 285 286 285 285 285 286 285 284 284 284 285 285 284 285 285 285 286 286 286 286 285 286 286 285 286 286 286 286 285 285 285 284 284 284 284 285 285 284 283 282 282 281 281 281 281 281 281 281 282 283 283 282 277 275 275 274 275 276 279 280 280 280 280 280 280 280 280 280 280 280 280 282 281 281 282 281 282
285 285 285 286 286 285 285 285 285 285 285 285 285 285 285 285 285 285 285 285 286 286 285 285 286 286 286 286 286 286 286 286 286 286 286 286 285 285 285 285 285 285 285 284 284 284 284 283 283 283 282 282 282 282 282 283 282 282 280 277 275 275 274 274 279 275 274 276 279 279 280 280 280 280 281 281 280 280 280 281 281 281 281 282 281
Wind_Speed
4 4 4 6 8 9 8 8 7 6 7 8 6 5 5 5 5 5 5 6 6 7 7 8 8 8 9 8 9 8 8 8 7 7 7 7 7 7 7 7 8 7 6 7 6 7 6 7 7 7 5 7 5 5 5 6 6 6 6 6 6 4 6 6 6 3 1 2 5 7 7 9 10 10 9 7 7 9 9 7 7 5 5 8 8
5 5 6 7 9 8 7 7 7 7 7 6 6 6 6 6 5 5 6 6 7 7 8 8 8 8 8 8 8 8 8 8 8 7 7 7 7 6 6 7 6 7 6 7 6 6 7 7 7 7 6 7 6 6 6 5 6 5 6 7 7 7 5 6 7 6 6 3 5 3 6 7 8 9 10 11 10 9 8 6 6 7 7 7 7
6 5 6 7 8 7 8 8 8 8 8 7 7 6 6 6 6 6 7 7 7 7 7 8 8 8 8 8 8 8 8 8 9 9 8 8 8 7 6 6 6 6 6 7 7 5 5 6 6 5 6 7 7 6 6 6 6 6 6 6 7 7 7 7 6 6 6 5 5 7 7 9 10 9 10 6 7 8 7 6 6 5 5 8 8
6 6 7 9 10 9 8 7 8 8 8 6 7 6 6 7 7 7 8 7 8 7 7 8 8 8 8 8 8 8 9 8 8 8 8 8 8 7 7 6 7 6 5 5 4 3 4 4 5 6 6 8 6 6 6 6 7 6 6 6 7 8 8 8 8 6 5 6 6 7 7 8 7 6 5 7 9 9 6 5 6 6 6 6 8
6 6 6 9 9 9 10 9 9 8 7 6 7 7 7 7 7 7 7 8 8 7 6 7 7 8 7 9 9 9 9 9 8 8 8 7 8 7 7 6 6 6 6 5 5 5 4 4 3 4 5 6 5 5 5 6 6 6 6 6 6 7 7 7 7 7 7 8 5 3 4 5 4 7 10 9 7 6 6 6 7 7 6 6 5
6 6 7 9 8 9 9 8 8 7 6 6 6 6 7 7 7 7 8 8 8 7 8 7 7 8 8 9 9 10 9 9 9 9 9 8 8 7 6 6 6 6 6 4 4 3 3 3 4 5 5 6 5 4 4 6 5 6 6 6 6 5 6 7 6 6 7 6 7 5 7 7 6 7 10 9 9 8 6 6 6 6 6 6 4
6 7 7 9 9 9 9 8 7 6 6 6 6 6 7 8 9 8 8 8 8 8 8 8 8 8 9 9 10 10 10 10 9 9 8 8 9 7 6 6 5 4 4 4 3 2 1 1 1 4 4 4 4 4 4 5 5 6 6 6 6 6 7 6 5 6 6 5 4 5 7 5 6 8 7 8 7 8 9 8 5 4 5 7 5
7 7 8 9 9 7 7 7 7 6 6 6 7 8 8 8 8 8 8 9 8 8 9 9 7 8 8 8 9 9 10 11 11 10 8 7 9 9 9 8 8 7 6 5 5 4 4 3 2 1 4 4 3 3 3 3 3 5 5 6 6 6 6 6 6 6 6 6 7 6 6 6 5 3 5 6 6 5 7 7 9 7 6 5 5
7 8 8 8 8 6 6 6 5 6 7 8 8 9 9 9 9 9 9 9 8 9 7 7 9 10 10 9 9 9 10 10 9 10 11 10 8 8 9 9 8 7 8 8 8 7 7 7 6 6 4 3 5 5 5 5 5 4 4 6 7 7 6 5 6 6 5 6 5 4 6 5 6 7 8 9 11 11 8 7 6 7 6 5 3
8 7 8 7 7 6 6 6 7 7 8 9 9 9 9 9 9 10 10 9 8 8 8 8 10 11 11 11 10 10 10 8 14 19 15 9 9 8 8 9 9 9 9 8 8 9 8 7 8 15 12 9 5 2 5 7 8 6 5 5 6 6 6 6 5 6 7 7 7 7 7 7 8 10 10 9 6 7 9 8 8 7 7 5 4
8 7 7 5 6 7 6 7 7 8 8 9 9 9 9 8 9 9 10 10 9 8 8 10 10 9 10 10 11 10 9 11 19 17 17 17 11 9 9 9 10 9 9 9 10 9 8 9 8 9 9 8 6 8 8 10 9 7 5 8 8 1 6 6 6 6 7 7 6 7 8 8 8 7 7 7 7 9 8 8 8 9 8 9 6
7 7 5 6 7 7 7 8 8 8 9 9 9 9 8 9 9 9 9 10 9 8 10 10 9 7 6 9 11 11 9 16 17 18 18 17 14 10 9 9 9 10 9 10 9 10 9 9 9 7 8 8 7 9 12 16 16 16 16 15 15 15 12 3 3 6 6 7 6 8 8 8 8 7 6 7 8 8 9 9 10 11 9 8 5
7 5 6 7 7 6 8 8 8 8 9 9 8 8 9 9 9 9 9 8 8 10 10 10 9 8 9 12 10 11 11 17 17 18 18 17 16 12 10 10 11 11 11 11 11 12 10 9 9 9 8 14 10 9 8 10 14 17 18 16 18 19 16 16 13 6 3 6 7 6 7 6 6 8 7 8 7 9 8 8 8 8 8 8 6
7 6 6 7 6 7 8 9 8 8 8 9 8 8 9 9 7 6 7 8 8 9 9 11 10 10 10 8 10 12 13 16 19 18 17 16 16 13 10 11 10 12 13 12 12 12 12 11 11 10 10 11 9 9 8 9 10 12 11 12 12 17 18 19 18 17 13 4 1 3 1 1 6 5 2 3 12 13 11 8 8 8 8 7 4
6 6 6 7 6 7 8 8 8 8 8 8 8 9 8 7 8 8 8 8 9 9 9 10 9 10 10 10 11 12 13 20 18 19 18 16 15 13 11 11 11 11 10 11 12 13 12 12 11 12 12 11 10 11 11 11 12 12 13 13 14 12 13 12 12 11 10 9 8 7 6 6 2 5 5 2 1 4 7 9 10 8 7 7 7
6 6 7 6 6 6 8 8 8 8 8 8 9 8 8 8 9 7 7 7 7 7 8 8 10 10 11 12 12 13 13 20 19 19 18 15 15 10 11 11 11 12 13 13 14 13 11 10 10 11 13 12 15 15 12 12 13 13 13 12 12 13 14 13 16 17 13 10 9 8 7 9 10 5 4 6 5 5 9 9 9 9 9 7 6
6 6 7 6 6 6 7 8 8 8 8 8 9 8 8 8 8 6 7 7 8 9 9 9 9 11 12 11 12 12 13 18 20 19 17 16 13 12 12 12 12 13 13 12 12 15 16 14 11 10 11 13 17 16 13 15 13 12 12 13 12 13 10 9 14 18 19 20 19 19 20 21 20 18 16 14 6 6 7 8 7 8 8 6 4
6 7 7 6 6 6 7 8 8 8 8 9 8 7 7 6 8 6 7 7 8 8 7 9 10 11 12 12 11 11 11 17 20 19 18 17 12 11 11 13 13 13 12 13 12 13 18 27 20 13 13 13 20 21 17 12 12 12 12 13 13 13 11 8 8 11 16 18 19 20 20 19 19 21 20 18 16 9 4 6 5 6 5 4 5
6 6 6 6 7 7 8 9 8 8 8 8 7 8 7 7 6 7 7 7 8 6 7 8 10 10 10 11 15 14 11 14 19 19 19 17 12 10 10 10 11 11 11 12 13 12 13 17 24 18 16 17 23 22 21 15 12 11 10 12 13 14 10 9 11 12 13 14 14 16 16 16 15 14 15 21 19 15 10 6 4 6 6 6 7
6 6 6 7 7 8 8 9 9 8 8 8 7 8 7 6 7 7 8 6 6 6 6 7 10 10 9 10 11 11 12 12 15 20 19 18 15 10 10 12 11 11 11 9 10 12 13 13 16 20 21 22 22 22 21 20 13 11 10 11 12 12 7 10 11 10 12 12 12 12 13 13 14 14 13 13 14 16 13 11 9 5 5 6 5
6 6 7 7 8 9 8 8 9 8 7 7 7 7 6 6 6 6 6 5 6 8 9 8 9 10 9 10 11 12 11 11 14 20 19 20 18 14 11 12 10 10 10 12 10 11 11 12 11 17 21 21 20 21 20 19 16 13 13 11 10 7 7 9 11 13 11 12 11 11 11 11 12 11 12 13 14 13 13 12 12 10 7 6 5
6 7 8 8 9 9 9 8 8 7 6 6 8 8 6 6 6 6 6 7 9 9 8 8 9 9 8 9 9 11 12 15 10 17 20 20 20 19 11 9 8 8 12 12 12 11 10 11 10 14 21 21 21 20 20 19 18 13 14 15 15 14 11 9 9 10 10 10 11 11 11 11 11 11 11 12 12 12 11 11 11 11 10 8 7
7 8 8 9 9 8 8 9 7 6 6 6 8 8 6 7 7 7 7 8 9 9 9 8 8 9 9 9 8 9 9 10 17 13 18 19 19 19 17 12 13 10 9 11 10 9 8 10 11 17 20 21 21 21 20 20 16 14 18 17 16 15 11 9 9 10 10 10 10 11 10 9 10 9 9 9 8 9 9 9 10 10 10 10 9
8 8 8 9 9 8 8 8 7 6 6 6 8 8 7 7 7 7 6 7 7 9 8 7 8 9 9 9 7 7 7 8 12 16 15 18 18 18 17 17 16 11 10 8 7 8 7 9 10 17 19 19 20 21 21 20 15 19 18 17 15 13 10 10 10 9 9 10 11 10 9 8 8 8 8 6 6 7 7 8 8 8 9 9 10
9 9 9 8 8 7 7 7 6 6 6 6 7 7 8 7 8 6 7 8 8 9 7 7 8 7 8 7 6 6 6 7 7 11 16 16 17 17 17 17 15 14 12 8 8 8 11 15 18 18 18 18 19 17 16 18 20 19 19 17 14 10 10 9 9 10 11 10 9 9 8 8 7 6 5 6 6 7 6 7 7 7 6 8 10
9 9 8 8 7 6 8 7 7 7 6 6 7 7 7 7 7 6 7 7 7 8 7 7 8 8 8 7 8 7 8 8 8 9 8 10 11 15 16 16 16 16 14 11 14 16 16 15 17 16 16 14 12 10 10 11 16 17 17 15 9 9 9 9 9 10 9 8 8 8 6 7 7 6 7 8 9 8 7 7 8 9 8 8 10
9 9 8 7 7 7 8 7 7 7 7 7 7 7 7 6 7 7 7 7 8 7 7 7 7 8 8 7 7 8 8 8 8 8 8 7 7 8 8 9 12 13 10 9 10 9 13 12 11 13 12 16 15 14 13 13 12 11 8 8 8 8 7 7 7 7 7 7 7 7 6 6 6 9 9 9 8 7 6 7 7 7 7 7 9
9 8 8 7 7 6 7 8 9 7 7 7 7 7 7 6 8 7 6 6 7 7 7 7 7 7 7 6 7 8 8 8 8 8 8 7 8 8 8 8 8 7 8 7 7 8 8 11 13 10 10 10 9 8 8 8 9 9 8 8 7 8 8 7 7 7 6 5 6 6 7 7 8 7 7 8 7 6 7 7 7 7 6 6 6
9 9 8 7 7 6 6 7 7 8 8 9 8 6 6 6 7 6 5 3 4 7 7 6 5 4 5 6 7 7 7 8 6 4 8 9 8 8 8 8 7 8 7 6 6 7 9 10 9 10 9 9 10 9 8 8 9 8 9 9 8 8 8 8 8 8 7 7 8 7 7 7 8 7 8 8 7 6 6 6 7 7 7 8 9
9 8 7 7 7 7 7 7 7 7 7 8 8 8 9 9 6 7 6 7 9 7 4 5 4 5 6 5 4 7 7 4 5 12 13 13 14 14 11 11 10 7 7 8 7 10 10 10 10 9 8 9 9 8 8 8 7 7 8 9 8 8 8 7 7 6 6 7 6 7 7 6 7 7 7 7 7 6 7 6 6 7 9 7 7
8 7 7 7 7 7 7 7 6 7 7 7 7 8 7 8 11 10 8 7 8 8 8 6 5 5 6 7 6 8 8 10 13 13 14 14 14 14 13 12 12 12 9 7 13 10 6 8 6 7 7 6 7 7 7 7 6 6 7 7 7 8 7 7 7 5 6 5 6 6 5 6 7 7 7 7 7 6 6 6 6 6 7 7 7
9 7 7 7 7 7 7 7 7 7 6 6 6 6 7 7 7 10 11 11 10 10 9 9 8 8 7 8 7 7 10 12 13 13 13 14 14 14 14 14 13 13 10 10 11 7 5 6 6 7 7 7 6 6 7 7 6 6 6 6 6 7 7 6 5 5 5 6 6 5 5 5 4 4 5 4 5 7 6 7 6 7 7 6 6
10 8 7 7 7 7 7 7 6 7 7 7 6 6 7 6 8 7 7 10 13 13 12 10 10 10 12 12 10 9 8 9 12 12 12 12 13 13 14 15 13 9 9 12 8 6 6 7 7 6 6 6 6 6 6 6 6 6 6 6 6 7 6 5 3 6 5 5 4 5 5 4 4 4 4 4 4 4 4 4 4 5 5 6 5
8 8 7 7 7 7 7 6 7 6 6 6 6 6 6 6 6 6 7 6 8 9 11 12 10 11 10 10 10 10 10 10 11 11 11 10 10 10 10 9 12 14 12 8 7 7 6 7 7 6 6 6 5 6 5 6 6 6 5 6 5 5 6 6 8 7 5 5 5 4 5 4 4 4 4 4 3 4 4 3 3 3 3 3 3
7 7 9 7 7 7 6 6 6 6 6 6 6 6 6 5 5 6 7 7 7 6 4 6 9 9 7 6 9 10 10 10 10 9 9 8 9 7 8 8 9 8 9 8 7 6 7 6 6 5 4 5 4 4 5 5 5 6 5 5 6 6 6 7 6 6 6 5 6 5 4 4 4 3 3 4 4 5 4 3 3 4 3 2 2
7 7 6 7 6 6 6 6 6 6 6 6 5 6 5 6 6 6 6 6 6 6 5 5 4 5 10 9 9 10 11 10 10 10 10 10 7 4 8 7 7 7 7 6 6 5 5 5 5 5 4 4 4 5 4 5 5 5 5 5 5 5 6 6 6 6 5 5 5 5 5 5 4 3 2 4 4 4 2 3 3 3 3 3 2
7 7 6 5 5 6 6 6 5 6 5 6 6 6 5 5 5 5 5 6 6 5 5 4 5 6 6 5 6 8 8 8 9 9 9 8 8 8 7 6 5 6 6 5 5 6 6 5 4 4 5 5 4 4 4 5 4 5 5 6 6 7 5 4 5 5 6 6 6 6 5 5 4 4 3 4 3 3 2 2 2 3 3 3 4
7 7 7 6 5 6 6 6 6 6 6 6 5 5 5 5 5 5 6 6 5 5 5 4 4 5 5 2 4 3 4 6 8 8 8 8 7 5 4 6 5 6 5 4 4 5 5 4 4 5 4 4 4 4 4 4 4 4 3 3 4 3 5 6 6 7 6 5 6 5 4 5 4 3 3 5 4 3 3 2 2 2 2 3 3
5 6 9 9 6 6 6 6 5 6 5 5 5 5 5 5 5 5 5 5 5 4 4 3 4 4 3 1 2 3 5 5 4 3 4 3 3 3 4 4 4 4 4 3 3 4 4 4 3 3 3 3 3 3 3 2 3 3 3 3 4 5 7 5 5 5 5 5 4 4 4 4 3 3 3 3 4 3 3 3 3 3 3 3 2
7 6 6 8 6 6 6 6 5 5 5 5 4 4 4 4 5 5 5 5 5 3 4 4 3 3 1 1 2 4 5 2 1 1 2 3 3 3 3 3 4 4 4 3 3 3 3 2 2 3 3 2 3 3 2 2 2 2 2 3 3 4 4 3 4 4 4 3 4 4 5 4 4 2 3 3 2 2 3 4 3 2 2 1 1
6 6 6 6 6 6 5 5 5 5 5 5 5 4 4 4 4 4 4 4 4 3 4 3 4 2 2 2 4 1 5 3 2 1 1 1 2 3 2 2 0 2 1 2 2 2 2 2 1 1 0 1 1 2 2 1 1 2 2 2 3 3 3 3 3 3 3 4 4 4 4 4 4 4 4 3 2 2 2 2 2 2 2 2 2
7 6 6 6 7 6 6 5 4 4 5 5 5 5 5 4 4 4 5 4 4 4 2 3 2 2 2 3 3 2 3 3 2 2 1 1 1 2 1 2 2 2 1 1 2 1 1 2 1 0 0 0 0 0 0 1 1 2 2 2 3 3 3 3 3 4 4 3 3 4 3 3 3 3 3 3 3 2 2 3 2 2 2 2 2
8 7 7 6 6 6 6 6 5 5 5 5 5 4 4 5 5 5 4 4 4 4 4 3 3 2 2 4 2 3 1 3 2 3 3 2 2 2 1 2 2 2 2 2 1 1 1 1 1 1 0 0 0 0 1 1 1 1 1 2 2 3 3 3 3 3 3 3 3 3 4 4 4 4 3 3 3 2 3 3 3 2 2 2 2
7 7 6 7 6 5 5 6 6 5 6 5 5 5 5 5 4 4 4 5 4 4 4 4 3 2 2 1 1 1 3 3 3 3 4 4 3 2 2 3 3 3 3 1 1 1 0 1 1 1 1 1 0 1 0 1 1 1 1 1 2 2 2 2 3 3 3 3 3 3 3 3 3 2 3 2 3 4 3 4 3 3 3 3 3
7 7 7 6 6 6 6 5 5 5 4 4 4 4 4 5 5 5 5 5 5 4 4 4 3 3 4 3 3 4 4 4 4 4 3 4 3 3 2 3 2 4 1 2 1 1 1 1 1 1 1 1 0 0 0 0 1 1 0 0 1 2 1 1 1 0 0 2 2 2 2 3 3 2 2 2 2 2 2 2 2 3 4 3 3
7 6 6 6 6 5 6 5 4 5 5 5 5 5 4 4 4 5 5 5 5 5 5 5 4 4 4 4 4 5 4 4 5 5 4 3 3 3 3 3 3 3 3 2 1 1 1 1 1 2 2 2 1 1 0 0 0 1 1 1 1 1 1 1 0 0 0 1 1 1 2 2 2 2 2 2 2 1 2 2 1 2 2 2 2
7 6 7 6 7 6 6 6 5 5 5 5 5 5 5 6 5 5 5 6 6 6 5 5 5 5 6 5 4 6 6 5 4 4 5 6 5 5 3 3 3 3 3 2 2 2 3 3 3 3 3 3 2 3 2 1 0 0 1 1 1 1 1 1 1 1 0 0 0 0 1 1 2 2 2 3 2 2 3 2 2 3 2 2 2
7 7 7 7 6 6 6 6 6 5 5 6 6 6 6 5 5 5 5 5 6 6 6 5 6 6 6 6 6 6 6 6 5 5 4 3 4 4 3 3 4 4 3 3 3 3 3 3 3 3 3 3 3 3 3 3 2 1 1 1 1 1 2 3 1 2 1 1 1 0 0 1 1 1 2 2 2 2 3 3 3 2 2 2 1
6 6 6 7 6 6 6 6 6 6 6 6 6 5 5 5 6 5 5 6 6 6 6 6 6 6 6 7 6 6 6 5 5 5 4 4 5 4 4 4 4 4 3 4 4 3 3 3 4 4 4 3 3 3 3 3 3 3 3 2 2 5 6 5 3 2 3 2 1 1 0 0 1 2 2 2 2 1 2 2 2 3 2 2 2
6 6 6 6 6 6 6 6 6 6 6 5 6 6 6 6 6 6 6 6 5 6 6 6 7 7 7 7 7 6 6 6 6 7 6 4 4 4 4 4 4 4 4 5 5 4 3 3 4 4 4 4 4 4 3 3 3 3 3 3 5 6 6 6 6 4 3 2 2 1 1 1 2 2 2 2 2 3 3 2 2 2 2 3 3
6 6 6 6 6 5 6 6 5 5 5 6 6 6 6 6 7 6 6 6 7 7 7 7 7 7 7 7 7 6 6 7 7 6 6 5 4 4 4 5 5 5 5 5 5 5 4 4 3 4 4 4 4 4 4 4 4 4 6 8 8 7 7 6 5 6 7 4 2 2 2 2 3 3 3 2 2 2 2 3 3 2 3 2 3
Wind_Direction
74 64 70 67 70 63 56 52 53 46 45 37 36 21 11 359 349 342 336 341 344 349 353 353 345 340 336 338 334 329 321 314 304 301 294 289 284 277 269 261 258 258 253 252 247 250 242 235 231 225 212 213 199 202 215 214 211 208 195 190 189 186 173 167 179 158 232 222 182 191 175 165 190 191 179 151 163 187 191 183 177 149 164 173 178
60 64 66 68 68 64 60 56 51 49 47 36 29 19 7 354 343 342 347 348 357 1 6 356 349 344 342 338 335 330 332 327 318 306 303 301 299 290 281 269 266 265 258 254 253 243 237 230 229 221 201 213 205 193 200 205 205 201 187 188 190 188 189 169 186 170 182 167 177 133 156 179 191 190 176 173 178 166 169 155 160 156 157 177 169
57 62 71 77 75 69 60 49 45 41 36 26 18 6 355 352 355 357 360 359 1 8 4 356 350 344 342 338 334 333 334 334 329 324 326 326 321 315 303 298 287 283 279 272 265 251 234 225 227 216 203 214 212 201 196 203 200 202 196 193 196 191 188 186 162 183 174 184 165 166 174 183 195 189 185 164 132 147 150 155 147 155 170 170 174
72 64 70 70 68 63 60 53 48 40 35 20 12 3 4 8 8 10 5 3 6 3 4 359 349 341 338 337 333 331 335 336 330 329 329 329 330 326 319 312 307 300 295 296 293 265 246 233 228 223 212 215 212 206 199 201 202 205 202 195 194 190 191 190 190 163 158 159 199 189 184 173 192 160 133 134 149 159 156 141 148 162 157 165 173
82 75 78 77 67 60 51 42 39 35 29 17 15 13 14 13 15 15 13 8 10 1 359 356 349 346 342 340 336 336 334 332 332 327 324 324 326 322 320 320 318 312 306 298 287 260 249 244 232 218 211 218 211 204 192 195 197 199 196 192 194 188 191 194 192 172 162 181 164 192 160 166 145 153 154 154 151 146 142 155 163 159 157 167 161
68 79 72 72 66 66 60 48 36 28 26 18 18 21 23 19 15 17 16 9 6 6 356 351 350 345 344 341 341 341 339 337 336 332 326 324 326 327 329 323 317 318 329 316 294 276 266 249 217 212 207 217 212 204 195 201 193 194 196 194 196 186 186 193 191 184 180 171 158 149 177 167 162 159 171 161 153 150 146 146 148 152 150 150 151
69 76 75 76 69 61 59 53 38 28 23 22 23 25 26 22 20 19 15 10 11 7 356 356 350 351 354 355 360 0 360 1 355 343 331 325 323 325 338 339 340 342 353 346 344 346 14 339 236 221 218 213 213 216 213 214 197 198 197 196 193 186 185 188 180 179 177 160 156 169 168 180 163 161 166 163 161 160 152 148 148 151 153 153 138
69 70 70 66 68 65 72 63 44 35 32 27 28 30 26 23 20 17 15 16 10 5 358 356 352 16 11 11 13 14 13 12 3 351 348 352 6 21 16 11 8 3 353 346 338 332 336 320 297 216 203 214 217 199 200 226 218 210 198 191 187 186 188 177 178 176 174 176 169 170 182 163 170 115 126 142 144 166 170 161 161 155 156 156 155
69 62 62 65 68 67 63 57 40 33 34 33 34 31 25 22 22 20 20 17 11 6 358 349 21 23 19 19 20 21 24 17 9 5 11 24 28 24 20 17 13 13 12 10 9 12 12 6 351 349 323 268 205 201 205 220 215 213 195 195 190 191 188 180 188 171 173 175 156 154 155 163 174 158 157 171 182 181 163 152 147 151 145 131 129
68 67 64 64 69 62 62 59 46 40 38 37 35 32 29 26 25 23 20 18 13 14 358 20 32 31 27 25 27 28 23 18 15 22 23 23 28 23 23 19 15 17 16 9 3 9 17 17 15 21 16 6 347 275 231 223 215 217 200 192 191 193 192 190 179 181 178 179 181 169 171 183 181 183 182 187 162 124 140 149 144 136 129 118 102
62 61 64 66 67 62 57 59 50 46 42 41 38 33 31 26 25 25 23 19 10 9 12 27 30 28 29 29 31 28 23 19 19 24 25 25 35 33 29 23 20 20 20 16 11 5 13 20 16 18 19 21 23 22 29 24 21 15 27 32 29 267 207 181 185 184 180 188 178 173 187 188 195 189 185 164 157 159 155 151 140 142 153 149 158
72 64 61 68 64 59 60 61 54 49 45 44 43 39 37 33 30 25 24 21 15 12 23 25 26 15 13 28 34 26 21 18 22 28 31 28 30 39 33 29 25 23 18 16 14 13 12 14 18 13 15 27 39 46 52 53 55 55 55 49 40 34 34 36 201 185 182 187 175 194 188 195 185 181 174 158 158 158 160 154 155 159 158 167 167
69 67 63 64 71 65 67 65 57 52 49 48 47 44 41 38 32 26 22 16 18 27 23 23 22 18 26 34 31 26 25 16 23 30 33 32 31 40 39 34 33 28 24 20 16 17 15 15 15 19 10 29 49 53 56 59 56 55 51 46 42 38 30 24 21 13 238 189 181 188 202 175 167 197 195 174 156 153 148 153 156 163 166 172 177
66 65 67 66 64 70 72 68 57 52 51 51 50 48 46 42 35 27 27 28 30 29 28 28 25 28 31 30 37 35 31 11 22 26 31 35 35 41 41 39 36 34 29 22 21 19 19 21 22 23 20 33 44 56 64 64 57 50 46 47 43 34 35 32 27 24 23 9 268 205 52 117 193 188 161 162 166 168 160 161 157 154 169 178 129
62 60 66 69 63 67 73 71 64 53 51 54 53 50 46 42 37 31 33 31 32 32 27 31 30 31 32 36 41 40 28 14 19 24 27 32 37 47 45 44 42 40 32 26 24 21 16 20 29 36 37 40 40 49 62 64 66 65 62 57 52 49 44 27 25 27 28 29 36 39 18 1 24 108 110 53 46 113 150 161 160 142 107 85 71
70 61 66 63 63 65 74 75 68 59 56 55 54 50 46 41 44 34 42 45 47 47 43 39 36 37 39 40 43 37 25 16 19 22 26 28 41 47 49 47 44 40 37 31 31 26 19 15 20 27 38 40 33 43 58 67 65 66 65 58 57 58 56 52 56 58 56 50 49 52 45 44 36 42 83 99 75 70 92 90 90 109 122 117 122
69 66 63 59 64 68 76 77 70 61 57 58 54 48 46 42 43 34 51 48 50 47 46 42 39 42 40 37 41 39 31 19 20 23 24 24 46 55 51 52 49 45 39 34 36 37 35 29 29 31 30 32 22 27 39 72 70 64 63 62 60 56 48 40 50 57 58 54 53 54 53 51 47 43 43 44 65 94 97 102 120 133 127 120 93
74 70 60 56 65 70 74 75 70 62 59 58 54 50 48 45 47 33 45 47 50 46 45 50 44 43 43 43 38 43 36 24 25 25 28 26 39 54 57 58 51 47 47 41 40 41 38 39 41 39 38 34 30 30 22 43 62 63 64 66 57 58 45 33 45 49 55 58 53 53 50 47 53 52 45 49 43 32 88 118 145 121 115 110 130
71 71 66 65 70 75 76 75 71 66 63 58 56 57 48 48 46 44 48 49 53 48 44 51 52 48 44 42 40 45 40 29 27 30 33 29 39 54 56 59 53 46 48 46 43 42 37 39 38 41 48 43 42 38 32 37 53 48 56 64 60 54 37 34 43 47 42 45 40 45 43 41 45 49 49 48 48 46 40 49 93 134 138 121 117
82 78 78 73 76 76 76 78 72 68 70 64 57 57 58 57 51 53 57 49 50 42 44 50 54 51 43 43 42 38 43 38 28 35 37 36 35 54 53 57 55 54 50 43 44 41 38 36 31 30 43 45 45 43 41 40 49 45 48 53 55 51 32 50 48 59 58 58 54 50 53 48 47 48 46 51 53 49 47 43 35 50 98 105 105
83 81 79 79 80 78 73 78 77 69 65 70 68 62 47 51 52 52 56 51 57 54 51 49 53 50 42 41 46 42 39 43 36 38 41 42 38 46 57 56 53 58 60 56 47 44 39 37 35 30 43 44 44 44 44 43 44 51 47 48 42 34 32 54 47 53 61 59 58 54 51 50 51 51 47 46 49 48 47 44 46 45 55 74 83
89 89 85 81 79 77 79 75 73 72 67 71 76 66 50 55 59 58 62 63 61 58 52 51 55 52 43 39 38 43 38 38 43 39 42 45 44 44 53 45 39 58 64 61 54 50 44 41 37 34 46 47 44 43 44 45 42 49 41 43 41 41 45 45 49 51 54 53 54 54 48 47 48 44 45 47 45 48 51 50 50 52 52 49 54
93 91 86 84 81 82 81 80 78 74 70 71 80 73 54 57 55 52 60 64 63 60 52 48 55 54 50 41 34 34 33 38 39 43 41 45 46 48 50 52 46 52 58 59 53 50 45 45 36 36 46 47 47 45 42 42 44 39 38 37 35 36 45 48 47 51 52 50 52 52 46 45 48 45 44 45 42 47 52 52 54 57 57 54 50
93 88 85 84 83 81 81 77 77 71 70 72 75 75 63 60 58 51 55 63 66 62 47 48 56 54 50 44 34 27 25 35 37 40 43 44 46 49 49 49 49 56 58 60 53 48 45 42 41 42 44 44 46 46 44 43 42 37 37 35 36 37 43 44 45 47 52 49 50 46 42 35 41 44 41 40 43 48 54 53 56 56 61 58 50
90 87 85 85 84 83 78 73 67 62 49 57 74 70 65 60 67 40 58 61 62 66 54 52 59 57 52 45 35 28 21 30 35 31 36 42 44 46 48 51 50 54 62 52 53 53 53 51 47 45 43 43 43 43 42 38 37 38 35 34 36 38 38 43 44 48 50 47 46 45 42 34 35 34 27 40 50 50 53 50 57 57 62 69 63
92 90 89 86 82 82 86 75 67 61 61 53 66 63 70 66 73 60 62 63 61 66 62 60 60 58 59 49 43 34 29 33 31 28 24 34 38 39 46 48 52 54 58 57 57 53 48 48 47 45 45 43 43 41 41 36 38 38 36 35 32 35 33 40 41 46 47 42 38 38 26 22 26 24 35 38 44 35 37 45 45 36 38 44 54
96 94 93 89 84 83 84 86 80 68 65 66 62 57 55 61 68 64 60 68 67 64 61 63 61 60 59 50 46 42 40 35 29 28 17 30 31 30 36 38 40 48 46 38 41 47 49 47 50 50 52 49 50 50 46 36 34 30 26 28 31 28 31 35 34 39 39 41 36 28 21 17 23 32 30 34 35 24 25 49 51 40 44 48 61
98 96 93 92 90 86 85 83 84 76 56 59 65 63 56 60 66 59 54 52 79 72 69 61 59 60 66 55 53 49 45 39 31 29 25 33 40 37 34 35 33 34 42 38 43 41 45 45 42 35 38 37 34 29 30 34 37 32 27 24 24 25 23 28 41 39 25 27 37 29 27 26 34 23 34 39 32 18 16 51 57 46 29 39 54
94 92 91 92 87 84 84 86 86 88 83 72 63 58 65 67 76 73 52 49 67 93 90 80 68 55 64 57 68 65 55 50 24 41 60 58 58 53 42 40 38 40 25 22 62 54 53 48 41 39 35 40 38 33 24 25 31 30 29 22 21 25 28 27 25 16 6 20 22 17 20 15 27 23 36 42 27 17 351 49 51 64 46 56 62
99 96 97 98 100 97 92 86 85 85 88 89 87 70 52 61 62 85 72 44 58 53 65 97 114 94 72 34 43 92 93 109 85 68 63 62 59 61 62 58 53 50 43 51 64 64 52 56 46 43 35 38 37 30 24 25 22 24 24 28 23 25 25 27 23 7 7 27 18 25 12 18 33 17 32 37 30 27 22 38 48 59 67 60 63
103 103 100 96 100 102 99 92 85 85 83 89 86 92 85 52 53 60 69 68 63 62 67 78 74 63 88 85 58 75 96 82 70 67 63 60 58 55 52 50 48 44 27 62 56 53 45 55 44 45 41 42 42 31 23 26 21 24 21 21 26 22 20 26 10 4 20 20 25 22 17 24 23 16 38 27 37 24 31 24 48 56 63 65 71
113 110 106 106 98 95 94 96 96 93 82 77 82 89 86 87 61 39 48 57 56 57 57 59 62 68 78 95 95 60 57 65 70 68 68 65 61 56 50 46 43 44 32 63 73 50 46 56 51 42 36 46 37 35 32 35 30 26 15 28 26 21 18 18 356 17 26 28 25 23 16 16 20 28 32 31 41 40 32 38 39 55 68 66 68
114 112 109 104 100 98 95 95 92 97 102 95 87 86 89 89 90 81 45 55 63 59 52 55 63 70 76 71 74 89 88 75 70 69 69 69 66 64 62 53 46 31 59 60 68 62 48 52 55 46 41 45 30 31 33 33 30 29 31 30 24 12 17 359 349 41 36 32 32 30 15 14 15 34 39 32 37 42 30 39 40 57 58 71 65
116 123 123 120 112 104 104 103 103 99 99 101 104 98 95 95 101 98 94 75 57 48 44 41 51 71 68 77 83 77 72 71 69 68 66 64 64 59 65 65 59 48 54 67 60 59 49 52 46 40 39 40 31 29 32 28 25 26 26 30 27 17 16 6 31 26 31 30 40 31 25 23 15 24 31 42 44 48 43 32 26 45 46 55 74
110 108 114 117 116 118 116 112 113 110 106 109 107 104 98 91 94 93 94 92 83 76 47 30 31 46 67 63 67 68 65 59 55 52 53 57 63 72 71 60 48 33 38 38 51 53 54 50 49 37 36 41 28 31 34 29 31 30 25 21 20 20 21 25 24 22 28 31 35 31 27 30 21 26 31 39 37 42 39 39 39 39 54 44 52
120 120 117 112 112 114 114 116 115 114 114 109 106 104 107 103 93 94 92 91 101 96 72 45 47 39 61 62 66 69 66 63 60 55 49 42 23 41 69 62 61 45 46 26 42 43 51 42 45 40 36 41 30 35 30 38 32 35 27 28 23 23 23 23 21 21 22 35 32 24 27 34 22 15 35 49 46 44 48 51 55 50 58 62 55
128 127 123 119 118 113 112 104 101 107 107 110 106 99 95 93 94 96 94 99 92 87 98 100 78 57 42 35 52 67 63 67 64 60 54 52 46 56 73 77 81 71 56 42 42 37 46 33 37 45 35 40 33 27 27 31 22 29 29 30 27 30 24 24 24 23 25 27 21 21 27 28 21 20 31 52 31 33 30 28 48 54 51 52 66
142 142 140 135 123 121 111 107 108 104 101 99 97 109 99 89 90 103 108 109 113 113 99 85 90 105 100 44 17 58 50 36 43 42 31 32 35 44 54 63 63 74 76 54 49 59 58 39 32 45 37 38 41 29 37 29 24 26 29 34 37 36 22 29 30 32 30 30 25 15 17 22 19 25 28 51 37 25 23 23 26 52 53 34 29
129 134 136 135 132 131 128 123 118 111 104 101 112 110 109 100 93 91 100 107 108 96 106 109 112 125 158 292 352 351 48 31 39 28 20 28 40 48 60 58 68 69 67 71 65 70 68 59 42 42 39 42 48 41 45 44 32 34 23 36 36 30 29 27 26 20 30 24 24 24 25 19 14 22 32 46 42 24 31 25 27 31 46 44 43
140 141 142 136 121 125 125 130 128 125 131 128 115 107 103 111 123 129 130 125 124 138 148 137 170 210 240 16 110 79 78 63 35 4 18 29 31 30 54 67 63 69 77 75 80 87 90 76 44 63 51 42 45 49 45 50 50 36 35 39 46 44 33 34 35 30 27 14 25 22 27 20 12 10 37 42 31 19 29 33 29 25 20 32 42
149 146 152 152 140 127 119 126 144 148 156 153 150 144 151 145 137 136 132 131 141 153 165 192 212 264 335 315 331 65 133 168 190 219 340 4 357 26 31 16 38 74 59 99 110 89 103 107 62 60 65 50 32 46 48 65 56 46 47 43 43 44 35 34 26 29 24 31 28 26 24 25 21 24 27 9 6 34 39 32 34 32 31 26 11
141 145 149 146 142 141 142 159 150 147 153 147 151 153 150 152 154 154 148 150 159 159 169 222 254 271 327 11 71 53 106 139 156 189 245 277 301 312 293 311 260 253 227 217 183 165 166 131 149 215 181 189 129 64 72 69 94 92 77 61 53 44 37 26 20 24 21 23 25 24 22 28 32 44 33 8 20 26 30 32 29 25 29 28 24
150 154 153 148 151 162 167 162 145 141 145 158 168 154 151 150 159 157 155 160 162 163 187 215 255 316 2 40 70 75 103 148 171 210 224 248 256 283 276 274 263 244 243 251 227 216 181 170 188 205 208 210 181 168 142 147 147 112 94 79 64 56 42 23 21 21 18 19 22 17 19 15 24 33 23 25 16 28 36 24 25 27 23 21 24
143 143 147 153 152 144 142 145 155 166 169 170 160 157 157 153 144 150 164 174 182 188 198 223 249 295 303 349 49 117 191 191 202 215 233 242 243 251 252 251 266 274 271 260 234 171 193 211 221 253 253 249 220 207 206 181 173 118 104 72 52 42 32 21 20 15 17 16 17 16 14 15 22 22 28 28 28 29 21 21 21 16 15 15 5
137 139 138 137 144 149 162 176 165 150 136 128 141 145 150 156 166 176 175 186 198 202 216 226 234 237 253 262 237 231 228 225 221 231 238 234 234 240 243 247 242 248 255 265 232 167 196 222 244 270 305 307 222 192 182 191 185 186 169 112 59 13 344 311 295 289 79 36 21 13 17 15 10 12 18 21 28 33 35 27 14 15 18 14 9
143 141 143 146 148 155 158 174 173 155 162 169 169 175 184 180 189 184 194 200 198 203 217 223 223 225 226 236 231 228 235 228 229 226 235 246 246 249 247 244 247 244 244 243 239 220 216 214 217 245 264 277 296 291 236 214 208 187 193 200 210 243 236 221 177 152 149 38 12 18 8 7 13 12 11 5 7 8 25 17 46 56 28 348 340
144 149 149 152 158 166 170 165 159 180 182 183 189 191 196 204 200 204 205 208 207 210 217 221 215 225 227 226 225 230 227 221 227 218 224 229 235 241 247 246 250 259 254 247 229 231 229 238 236 234 252 271 290 292 289 262 223 214 205 207 207 217 220 204 195 200 192 177 164 59 6 357 347 341 357 359 349 2 351 6 3 349 346 342 330
154 154 157 154 149 152 160 161 176 180 189 194 198 202 210 212 210 214 216 215 217 220 222 225 226 231 229 236 231 232 228 230 231 230 230 235 236 239 239 241 240 245 252 264 253 234 230 237 236 235 242 250 259 270 283 289 282 254 236 215 211 216 198 193 200 202 197 175 161 176 154 322 321 323 331 339 335 341 341 334 340 332 323 322 321
152 158 154 156 159 164 165 176 179 182 197 201 199 206 208 208 217 221 223 224 224 225 221 222 226 222 223 231 227 228 228 226 232 234 231 231 234 234 229 231 237 245 248 254 254 241 238 232 235 233 239 244 241 244 256 269 276 273 268 259 224 218 216 208 208 216 189 170 166 161 147 222 282 296 294 300 300 311 301 300 297 310 311 306 303
160 163 168 170 171 179 179 179 184 195 196 195 200 211 207 207 221 226 224 222 224 228 231 230 231 224 218 223 222 222 214 219 224 226 227 230 227 228 227 229 235 238 239 244 251 248 242 234 234 236 238 243 243 247 245 248 252 255 254 254 247 230 222 213 217 209 186 200 195 202 208 256 267 277 273 277 283 304 300 300 302 300 302 302 303
162 166 174 181 192 177 165 175 191 199 196 202 210 218 217 219 226 227 228 228 229 229 226 224 227 225 223 222 219 215 214 222 224 224 225 225 223 217 221 224 230 236 240 245 252 251 246 242 235 236 236 239 239 244 242 244 245 247 245 245 246 241 231 214 215 215 207 196 184 180 194 220 257 274 279 274 273 272 277 285 294 292 292 295 294